STARLINK-1237, 45192

Orbit data source: Space-Track

STARLINK-1237, 45192 is a payload satellite owned by SpaceX/Seattle (US) in LEO that was launched on Mon, 17 Feb 2020 UTC via an FALCON 9 launch vehicle from the Air Force Eastern Test Range (AFETR). Payload-class satellites include a variety of spacecraft equipped with specific instruments for various scientific and technological missions. These include communications satellites like Starlink; space stations such as the ISS; scientific satellites like the Hubble; Earth observation satellites from companies like Planet Labs, Umbra, and HawkEye 360; GPS; miniature CubeSats for education and research; and military/defense satellites.

Not visible in the next 10 days
Identifier
45192, 2020-012Q
Orbit
LEO
Country
Flag of USUS
Related business
Manufacturer
SpaceX/Seattle
Mission
Partially operational Commercial Communications
Bus & Motor
STARLINK, Unknown motor
Mass
260 kg wet, ~248 kg dry
Launch date (UTC)
2020-02-17 (6 years ago)
Launch vehicle
FALCON 9
Launch site
Air Force Eastern Test Range (AFETR)
Object type
Payload
Rocket body
Debris
Shape & HBR
Box + 1 Pan, 4.4 m
Radar Cross Section
13.562 m², Large (>1 m²)

Expand to show TLE details & history
Last TLE update: 13 hours ago

TLE from 13 hours ago
0 STARLINK-1237
1 45192U 20012Q   25259.99648258  .05593372  12247-4  72542-3 0  9997
2 45192  53.0365  49.5240 0005851 292.8627  67.1799 16.34918127309456
Epoch: 2025-09-16T23:54Z
TLE epoch observation values (Epoch: 2025-09-16T23:54:56.094Z)
Latitude
-0.00006°
Longitude
54.61146°
Altitude
178.796 km
Speed
7.801 km/s
True Right ascension
03h 18m 05s
True Declination
0° 00' 00"
Sunlit
Object was in full shadow at epoch
Visualization orbit readout
Latitude
Unknown
Longitude
Unknown
Altitude
Unknown
Speed
Unknown
Apparent Right ascension
Unknown
Apparent Declination
Unknown
Sunlit
N/A
Visualization observer readout
Local Sidereal Time
05:36:15
Azimuth
Unknown
Elevation
Unknown
Doppler factor
Unknown
Orbital elements
Apogee altitude
183.481 km
Perigee altitude
175.808 km
Semi-major axis
6,557.781 km
Eccentricity
0.00059
Inclination
53.0365°
RAAN
49.524°
Arg. of periapsis
292.8627°
True anomaly
67.24172°
Mean anomaly
67.1799°
Eccentric anomaly
67.21081°
Mean motion
4.08703 °/min
Orbital period
88.08 mins
BSTAR
0.00072542
Loading maneuver chart data...
Computing Atmospheric mass density...

Documentation

Showing up to 5 results
|